User: anonymous   Login
Location: Unspecified
(0.0000°N, 0.0000°E)
Time: 03:37:06
(UTC+00:00)
Language:

ADEOS - Orbit

View from above orbital plane
View from above orbital plane
View from above satellite
View from above satellite

Ground track
Ground track

The orbit data is extracted from the following two-line orbital elements,

1 24277U 96046A   18114.86211968 -.00000003  00000-0  16564-4 0  9993
2 24277  98.7660  70.7764 0002086 112.0423 248.0980 14.29415970130748
Epoch (UTC): 24 April 2018 20:41:27
Eccentricity: 0.0002086
inclination: 98.7660°
perigee height: 792 km
apogee height: 795 km
right ascension of ascending node: 70.7764°
argument of perigee: 112.0423°
revolutions per day: 14.29415970
mean anomaly at epoch: 248.0980°
orbit number at epoch: 13074

The dashed part of the orbit path shows where the satellite is in the earth's shadow,  

DLR